BRITE-AUSTRIA

Last updated on Sun Jun 21 2026 00:03:39 GMT+0000 (Coordinated Universal Time)

1 39091U 13009F 26171.48176721 .00000114 00000+0 53431-4 0 9993 2 39091 98.3997 350.8358 0009287 225.5758 134.4669 14.36543158697523
UTC large
Height (km)
Speed (km/s)
/
Latitude / Longitude
Inclination (degrees)
Orbital Period (minutes)
Azimuth
Elevation
Range (km)
Doppler Factor

Next 0 passes for location: London (51.5072 / 0.1276)

No passes found over London.
BRITE-AUSTRIA